Change the Weather History Date:

Tuesday, February 19, 2013

  Actual Average Record
Temperature  
Mean Temperature 24 °F 31 °F  
Max Temperature 30 °F 39 °F 52 °F (2004)
Min Temperature 17 °F 23 °F -4 °F (2015)
Degree Days  
Heating Degree Days 41 34  
Month to date heating degree days 648 702  
Since 1 July heating degree days 3832 4212  
Cooling Degree Days 0 0  
Month to date cooling degree days 0 0  
Year to date cooling degree days 0 0  
Moisture  
Dew Point 15 °F    
Average Humidity 73    
Maximum Humidity 85    
Minimum Humidity 60    
Precipitation  
Precipitation T in 0.08 in 1.78 in (2002)
Month to date precipitation 1.17 1.38  
Year to date precipitation 3.54 3.43  
Sea Level Pressure  
Sea Level Pressure 30.00 in    
Wind  
Wind Speed 26 mph (West)    
Max Wind Speed 38 mph    
Max Gust Speed 47 mph    
Visibility 9 miles    
Events Snow    
T = Trace of Precipitation, MM = Missing Value Source: NWS Daily Summary

Daily Weather History Graph

Daily Weather History Graph

Search for Another Location

Airport or City:

Trip Planner

Search our weather history database for the weather conditions in past years. The results will help you decide how hot, cold, wet, or windy it might be!

Date:

Astronomy

Feb. 19, 2013 Rise Set
Actual Time 6:40 AM CST 5:33 PM CST
Civil Twilight 6:12 AM CST 6:01 PM CST
Nautical Twilight 5:41 AM CST 6:33 PM CST
Astronomical Twilight 5:09 AM CST 7:04 PM CST
Moon 12:05 PM CST 2:12 AM CST
Length of Visible Light 11h 48m
Length of Day
10h 53m
Waxing Gibbous, 67% of the Moon is Illuminated
Feb 19
Waxing Gibbous
Feb 25
Full
Mar 4
Last Quarter
Mar 11
New
Mar 19
First Quarter

Hourly Weather History & Observations

Time (CST) Temp. Windchill Dew Point Humidity Pressure Visibility Wind Dir Wind Speed Gust Speed Precip Events Conditions
12:21 AM 28.4 °F 12.0 °F 24.8 °F 86% 29.74 in 10.0 mi West 33.4 mph 43.7 mph N/A   Overcast
12:53 AM 28.9 °F 13.7 °F 23.0 °F 78% 29.78 in 10.0 mi West 28.8 mph 38.0 mph N/A   Overcast
1:53 AM 27.0 °F 10.8 °F 21.0 °F 78% 29.81 in 10.0 mi West 29.9 mph 40.3 mph N/A   Overcast
2:53 AM 27.0 °F 10.5 °F 19.0 °F 72% 29.82 in 10.0 mi West 31.1 mph 40.3 mph N/A   Mostly Cloudy
3:53 AM 24.1 °F 7.1 °F 16.0 °F 71% 29.84 in 10.0 mi West 28.8 mph 36.8 mph N/A   Mostly Cloudy
4:48 AM 24.8 °F 8.7 °F 17.6 °F 74% 29.84 in 10.0 mi West 26.5 mph 35.7 mph N/A   Overcast
4:53 AM 24.1 °F 7.1 °F 16.0 °F 71% 29.86 in 10.0 mi West 28.8 mph 34.5 mph N/A   Overcast
5:53 AM 21.9 °F 4.2 °F 15.1 °F 75% 29.89 in 9.0 mi West 28.8 mph 39.1 mph 0.00 in Snow Light Snow
6:53 AM 21.0 °F 3.6 °F 14.0 °F 74% 29.91 in 10.0 mi West 26.5 mph 34.5 mph 0.00 in   Overcast
7:53 AM 21.9 °F 5.1 °F 15.1 °F 75% 29.94 in 5.0 mi West 25.3 mph 34.5 mph 0.00 in Snow Light Snow
8:53 AM 21.9 °F 3.9 °F 14.0 °F 72% 29.96 in 9.0 mi West 29.9 mph 38.0 mph 0.00 in Snow Light Snow
9:48 AM 21.2 °F 3.9 °F 15.8 °F 80% 29.96 in 1.5 mi West 26.5 mph 34.5 mph 0.00 in Snow Light Snow
9:53 AM 21.0 °F 3.3 °F 15.1 °F 78% 29.99 in 1.5 mi West 27.6 mph 34.5 mph 0.00 in Snow Light Snow
9:58 AM 21.2 °F 3.3 °F 14.0 °F 74% 29.96 in 3.0 mi West 28.8 mph - 0.00 in Snow Light Snow
10:53 AM 21.9 °F 4.2 °F 12.9 °F 68% 30.02 in 9.0 mi WNW 28.8 mph 40.3 mph 0.00 in Snow Light Snow
12:53 PM 21.9 °F 3.7 °F 12.9 °F 68% 30.04 in 9.0 mi West 31.1 mph 35.7 mph 0.00 in Snow Light Snow
1:53 PM 24.1 °F 7.4 °F 12.9 °F 62% 30.06 in 9.0 mi West 27.6 mph 39.1 mph 0.00 in Snow Light Snow
2:41 PM 24.8 °F 7.3 °F 12.2 °F 59% 30.05 in 9.0 mi West 32.2 mph 40.3 mph 0.00 in Snow Light Snow
2:53 PM 24.1 °F 6.9 °F 12.9 °F 62% 30.08 in 10.0 mi West 29.9 mph 35.7 mph 0.00 in   Overcast
3:53 PM 25.0 °F 7.6 °F 12.9 °F 60% 30.11 in 10.0 mi West 32.2 mph 38.0 mph N/A   Overcast
4:53 PM 24.1 °F 8.7 °F 12.9 °F 62% 30.14 in 10.0 mi West 23.0 mph 35.7 mph N/A   Overcast
6:53 PM 21.9 °F 4.8 °F 12.0 °F 66% 30.18 in 10.0 mi West 26.5 mph 31.1 mph N/A   Scattered Clouds
7:53 PM 21.0 °F 6.6 °F 12.0 °F 68% 30.19 in 10.0 mi West 17.3 mph - N/A   Clear
8:53 PM 19.9 °F 5.2 °F 12.0 °F 71% 30.19 in 10.0 mi West 17.3 mph - N/A   Clear
9:53 PM 19.9 °F 5.2 °F 12.0 °F 71% 30.21 in 10.0 mi WNW 17.3 mph - N/A   Clear
10:53 PM 19.0 °F 2.4 °F 8.1 °F 62% 30.22 in 10.0 mi NW 21.9 mph - N/A   Clear
11:53 PM 18.0 °F 1.3 °F 9.0 °F 68% 30.25 in 10.0 mi WNW 20.7 mph - N/A   Clear